Regional Weather Roundup
Issued by NWS

Home | Current Version | Previous Version | Text Only | Print | Product List | Glossary On
Versions: 1 2 3 4 5 6 7 8 9 10 11 12 13 14 15 16 17 18 19 20 21 22 23 24 25 26 27 28
000
ASPQ40 PGUM 250512
RWRPQ
WEATHER ROUNDUP FOR THE MARIANAS AND MICRONESIA
NATIONAL WEATHER SERVICE TIYAN GU
300 PM CHST SAT OCT 25 2014

GUZ001>004-250600-
MARIANA ISLANDS-

CITY           SKY/WX    TMP DP  RH WIND       PRES   REMARKS
GUAM AIRPORT   RAIN      84  77  79 NE12G25   29.88R HX  94
ANDERSEN AFB   MOSUNNY   82  77  83 NE12      29.87S HX  91
ROTA AIRPORT   MOSUNNY   84  77  79 NE12      29.87F HX  94
TINIAN AP      MOSUNNY   86  77  74 E10       29.86F HX  97
SAIPAN AP      MOSUNNY   88  77  70 NE13      29.87F HX 100

$$

PMZ161-250600-
REPUBLIC OF PALAU-

CITY           SKY/WX    TMP DP  RH WIND       PRES   REMARKS
KOROR AP       PTSUNNY   88  77  70 W12       29.83F HX 100
KOROR WSO      PTSUNNY   88  77  70 W5        29.83F HX 100

$$

PMZ171>174-250600-
FEDERATED STATES OF MICRONESIA-

CITY           SKY/WX    TMP DP  RH WIND       PRES   REMARKS
YAP AIRPORT    PTSUNNY   88  79  74 VRB5      29.82S HX 102
CHUUK AP       CLOUDY    86  82  89 NE7       29.77S HX 105
POHNPEI AP     CLOUDY    84  77  79 SE5       29.77S HX  94
POHNPEI WSO    CLOUDY    84  77  79 E9        29.81R HX  94
KOSRAE AP      NOT AVBL

$$

PMZ181-250600-
REPUBLIC OF THE MARSHALL ISLANDS-

CITY           SKY/WX    TMP DP  RH WIND       PRES   REMARKS
KWAJALEIN AP   SUNNY     86  72  62 SE5       29.82R HX  92
MAJURO AP      NOT AVBL
MAJURO WSO     CLOUDY    82  77  83 W6        29.80R HX  91

$$




USA.gov is the U.S. government's official web portal to all federal, state and local government web resources and services.